Location: Baia Mare
(47.6567°N, 23.5850°E)
Time: 13:32:08
(UTC+02:00)

ISS - Pass Details

Date: 09 December 2018
Orbit: 401 x 408 km, 51.6° (Epoch: 16 December)

Event Time Altitude Azimuth Distance (km) Brightness Sun altitude
Rises 17:45:18 0° 293° (WNW) 2,320 0.8 -11.5°
Reaches altitude 10° 17:47:23 10° 295° (WNW) 1,458 -0.4 -11.8°
Maximum altitude 17:50:39 70° 20° (NNE) 430 -3.9 -12.3°
Enters shadow 17:52:54 18° 103° (ESE) 1,054 -2.2 -12.7°
